| time (UTC) | temp F | wind direction | speed knots | gust knots | rain 1hr in | rain 24hr in | rain mn in | humidity % | barometer mb |
| 20260505111947 | 37 | 55 | 2.6 | 7.8 | 0.02 | 0.04 | 0.04 | 88 | 1019.0 |
| 20260505111941 | 37 | 55 | 2.6 | 4.3 | 0.02 | 0.04 | 0.04 | 88 | 1018.9 |
| 20260505110942 | 37 | 55 | 2.6 | 7.8 | 0.02 | 0.04 | 0.04 | 87 | 1018.9 |
| 20260505110443 | 37 | 55 | 1.7 | 5.2 | 0.01 | 0.03 | 0.03 | 87 | 1018.9 |
| 20260505101942 | 38 | 55 | 0.9 | 4.3 | 0.01 | 0.02 | 0.02 | 87 | 1018.8 |
| 20260505101440 | 38 | 55 | 1.7 | 5.2 | 0.02 | 0.02 | 0.02 | 87 | 1018.8 |
| 20260505100948 | 38 | 55 | 1.7 | 3.5 | 0.02 | 0.02 | 0.02 | 87 | 1018.8 |
| 20260505100942 | 38 | 55 | 1.7 | 5.2 | 0.02 | 0.02 | 0.02 | 87 | 1018.8 |
| 20260505095945 | 38 | 55 | 1.7 | 5.2 | 0.02 | 0.02 | 0.02 | 86 | 1018.8 |
| 20260505095939 | 38 | 55 | 1.7 | 3.5 | 0.02 | 0.02 | 0.02 | 86 | 1018.8 |
| 20260505094939 | 38 | 55 | 2.6 | 6.1 | 0.02 | 0.02 | 0.02 | 86 | 1018.8 |
| 20260505094444 | 38 | 56 | 0.9 | 3.5 | 0.01 | 0.01 | 0.02 | 85 | 1018.9 |
| 20260505094440 | 38 | 55 | 1.7 | 6.1 | 0.02 | 0.02 | 0.02 | 85 | 1018.8 |
| 20260505093447 | 38 | 56 | 0.9 | 2.6 | 0.01 | 0.01 | 0.01 | 84 | 1018.8 |
| 20260505093439 | 38 | 56 | 0.9 | 2.6 | 0.01 | 0.01 | 0.01 | 85 | 1018.8 |
| 20260505092940 | 38 | 56 | 0.9 | 2.6 | 0.01 | 0.01 | 0.01 | 85 | 1018.8 |
| 20260505091939 | 38 | 56 | 0.9 | 2.6 | 0.01 | 0.01 | 0.01 | 84 | 1018.9 |
| 20260505091441 | 38 | 56 | 0.0 | 2.6 | 0.00 | 0.00 | 0.00 | 85 | 1018.8 |
| 20260505090945 | 38 | 56 | 0.0 | 1.7 | 0.00 | 0.00 | 0.00 | 84 | 1018.7 |
| 20260505090939 | 38 | 56 | 0.0 | 1.7 | 0.00 | 0.00 | 0.00 | 85 | 1018.8 |
| 20260505085940 | 38 | 56 | 0.9 | 1.7 | 0.00 | 0.00 | 0.00 | 84 | 1018.8 |
| 20260505085440 | 38 | 56 | 0.9 | 2.6 | 0.00 | 0.00 | 0.00 | 84 | 1018.8 |
| 20260505084946 | 39 | 56 | 0.0 | 0.0 | 0.00 | 0.00 | 0.00 | 84 | 1018.7 |
| 20260505084940 | 39 | 56 | 0.0 | 2.6 | 0.00 | 0.00 | 0.00 | 84 | 1018.7 |
| 20260505083939 | 39 | 56 | 0.9 | 1.7 | 0.00 | 0.00 | 0.00 | 84 | 1018.7 |
| 20260505083441 | 39 | 56 | 0.9 | 2.6 | 0.00 | 0.00 | 0.00 | 83 | 1018.7 |
| 20260505082941 | 39 | 56 | 0.0 | 2.6 | 0.00 | 0.00 | 0.00 | 83 | 1018.6 |
| 20260505082439 | 39 | 56 | 0.0 | 1.7 | 0.00 | 0.00 | 0.00 | 83 | 1018.8 |
| 20260505081939 | 39 | 56 | 0.0 | 1.7 | 0.00 | 0.00 | 0.00 | 82 | 1018.8 |
| 20260505081440 | 39 | 56 | 0.9 | 1.7 | 0.00 | 0.00 | 0.00 | 82 | 1018.9 |
| 20260505080939 | 39 | 56 | 0.9 | 1.7 | 0.00 | 0.00 | 0.00 | 82 | 1018.9 |
| 20260505080442 | 39 | 56 | 0.0 | 1.7 | 0.00 | 0.00 | 0.00 | 82 | 1018.9 |
| 20260505075939 | 39 | 56 | 0.9 | 1.7 | 0.00 | 0.00 | 0.00 | 82 | 1018.8 |
| 20260505075439 | 39 | 56 | 0.9 | 2.6 | 0.00 | 0.00 | 0.00 | 82 | 1018.9 |
| 20260505074940 | 39 | 56 | 0.9 | 2.6 | 0.00 | 0.00 | 0.00 | 82 | 1018.9 |
| 20260505074441 | 39 | 56 | 0.0 | 1.7 | 0.00 | 0.00 | 0.00 | 82 | 1018.9 |
| 20260505073940 | 39 | 56 | 0.9 | 1.7 | 0.00 | 0.00 | 0.00 | 82 | 1018.8 |
| 20260505073440 | 39 | 56 | 0.9 | 2.6 | 0.00 | 0.00 | 0.00 | 82 | 1018.8 |
| 20260505072939 | 39 | 56 | 0.0 | 2.6 | 0.00 | 0.00 | 0.00 | 82 | 1018.8 |
| 20260505072440 | 39 | 56 | 0.9 | 2.6 | 0.00 | 0.00 | 0.00 | 82 | 1018.9 |
| 20260505071941 | 39 | 56 | 0.9 | 3.5 | 0.00 | 0.00 | 0.00 | 82 | 1018.8 |
| 20260505071441 | 39 | 56 | 1.7 | 3.5 | 0.00 | 0.00 | 0.00 | 82 | 1018.8 |
| 20260505070939 | 39 | 56 | 2.6 | 4.3 | 0.00 | 0.00 | 0.00 | 82 | 1018.7 |
| 20260505070437 | 39 | 56 | 3.5 | 5.2 | 0.00 | 0.00 | 0.00 | 82 | 1018.6 |
| 20260505065939 | 39 | 56 | 2.6 | 5.2 | 0.00 | 0.00 | 0.00 | 83 | 1018.7 |
| 20260505065438 | 39 | 56 | 2.6 | 4.3 | 0.00 | 0.00 | 0.00 | 82 | 1018.8 |
| 20260505064943 | 39 | 56 | 2.6 | 4.3 | 0.00 | 0.00 | 0.00 | 82 | 1018.9 |
| 20260505064937 | 39 | 56 | 2.6 | 4.3 | 0.00 | 0.00 | 0.00 | 82 | 1018.8 |
| 20260505063937 | 39 | 56 | 2.6 | 5.2 | 0.00 | 0.00 | 0.00 | 82 | 1018.9 |
| 20260505063437 | 39 | 56 | 2.6 | 5.2 | 0.00 | 0.00 | 0.00 | 82 | 1018.9 |
| 20260505062937 | 39 | 56 | 2.6 | 5.2 | 0.00 | 0.00 | 0.00 | 82 | 1018.8 |
| 20260505062438 | 39 | 56 | 2.6 | 5.2 | 0.00 | 0.00 | 0.00 | 82 | 1018.9 |
| 20260505061933 | 39 | 56 | 2.6 | 6.1 | 0.00 | 0.00 | 0.00 | 82 | 1018.9 |
| 20260505061435 | 39 | 56 | 3.5 | 6.1 | 0.00 | 0.00 | 0.00 | 82 | 1018.9 |
| 20260505060935 | 39 | 56 | 3.5 | 6.1 | 0.00 | 0.00 | 0.00 | 82 | 1018.9 |
| 20260505060433 | 39 | 56 | 3.5 | 5.2 | 0.00 | 0.00 | 0.00 | 82 | 1018.8 |
| 20260505055936 | 39 | 56 | 3.5 | 6.1 | 0.00 | 0.00 | 0.00 | 82 | 1018.8 |
| 20260505055435 | 39 | 56 | 3.5 | 6.1 | 0.00 | 0.00 | 0.00 | 81 | 1018.8 |
| 20260505054935 | 39 | 56 | 3.5 | 7.8 | 0.00 | 0.00 | 0.00 | 81 | 1018.9 |
| 20260505054440 | 40 | 56 | 3.5 | 7.8 | 0.00 | 0.00 | 0.00 | 80 | 1019.0 |
| 20260505054434 | 39 | 56 | 3.5 | 7.8 | 0.00 | 0.00 | 0.00 | 81 | 1018.9 |
| 20260505053430 | 40 | 56 | 3.5 | 7.8 | 0.00 | 0.00 | 0.00 | 80 | 1019.2 |
| 20260505052931 | 40 | 56 | 3.5 | 7.8 | 0.00 | 0.00 | 0.00 | 79 | 1019.2 |
| 20260505052429 | 40 | 56 | 3.5 | 7.8 | 0.00 | 0.00 | 0.00 | 79 | 1019.2 |
| 20260505051930 | 40 | 55 | 3.5 | 7.8 | 0.00 | 0.00 | 0.00 | 78 | 1019.0 |
| 20260505051430 | 40 | 55 | 4.3 | 7.8 | 0.00 | 0.00 | 0.00 | 77 | 1019.2 |
| 20260505050930 | 40 | 53 | 5.2 | 10.4 | 0.00 | 0.00 | 0.00 | 76 | 1019.2 |
| 20260505050430 | 40 | 53 | 6.1 | 12.2 | 0.00 | 0.00 | 0.00 | 75 | 1019.2 |
| 20260505041427 | 45 | 68 | 6.1 | 10.4 | 0.00 | 0.00 | 0.00 | 55 | 1018.7 |
| 20260505040929 | 45 | 70 | 6.1 | 10.4 | 0.00 | 0.00 | 0.00 | 54 | 1018.7 |
| 20260505040426 | 45 | 78 | 5.2 | 9.6 | 0.00 | 0.00 | 0.00 | 54 | 1018.7 |
| 20260505035925 | 45 | 82 | 5.2 | 9.6 | 0.00 | 0.00 | 0.00 | 54 | 1018.7 |
| 20260505035425 | 45 | 85 | 6.1 | 9.6 | 0.00 | 0.00 | 0.00 | 54 | 1018.7 |
| 20260505034925 | 45 | 82 | 6.1 | 11.3 | 0.00 | 0.00 | 0.00 | 55 | 1018.6 |
| 20260505034427 | 45 | 77 | 6.1 | 11.3 | 0.00 | 0.00 | 0.00 | 54 | 1018.6 |
| 20260505033925 | 45 | 78 | 6.1 | 12.2 | 0.00 | 0.00 | 0.00 | 53 | 1018.5 |
| 20260505033436 | 46 | 72 | 5.2 | 10.4 | 0.00 | 0.00 | 0.00 | 53 | 1018.3 |
| 20260505033426 | 45 | 76 | 6.1 | 12.2 | 0.00 | 0.00 | 0.00 | 53 | 1018.6 |
| 20260505032927 | 45 | 76 | 6.1 | 10.4 | 0.00 | 0.00 | 0.00 | 53 | 1018.3 |
| 20260505031928 | 46 | 68 | 5.2 | 10.4 | 0.00 | 0.00 | 0.00 | 52 | 1018.2 |
| 20260505031426 | 46 | 59 | 5.2 | 10.4 | 0.00 | 0.00 | 0.00 | 52 | 1018.2 |
| 20260505030927 | 46 | 84 | 5.2 | 10.4 | 0.00 | 0.00 | 0.00 | 51 | 1018.1 |
| 20260505030426 | 46 | 86 | 6.1 | 10.4 | 0.00 | 0.00 | 0.00 | 52 | 1018.0 |
| 20260505025928 | 46 | 85 | 6.1 | 10.4 | 0.00 | 0.00 | 0.00 | 52 | 1018.0 |
| 20260505025427 | 46 | 82 | 5.2 | 10.4 | 0.00 | 0.00 | 0.00 | 51 | 1017.8 |
| 20260505024926 | 46 | 75 | 5.2 | 12.2 | 0.00 | 0.00 | 0.00 | 51 | 1017.8 |
| 20260505024425 | 46 | 82 | 6.1 | 12.2 | 0.00 | 0.00 | 0.00 | 51 | 1017.8 |
| 20260505023933 | 46 | 81 | 6.1 | 13.0 | 0.00 | 0.00 | 0.00 | 50 | 1017.6 |
| 20260505023927 | 46 | 97 | 5.2 | 11.3 | 0.00 | 0.00 | 0.00 | 51 | 1017.6 |
| 20260505022928 | 47 | 65 | 6.1 | 13.0 | 0.00 | 0.00 | 0.00 | 50 | 1017.6 |
| 20260505022427 | 47 | 84 | 7.0 | 13.9 | 0.00 | 0.00 | 0.00 | 50 | 1017.4 |
| 20260505021928 | 47 | 65 | 7.8 | 13.9 | 0.00 | 0.00 | 0.00 | 50 | 1017.2 |
| 20260505021426 | 47 | 76 | 7.8 | 14.8 | 0.00 | 0.00 | 0.00 | 49 | 1017.2 |
| 20260505020927 | 47 | 53 | 7.0 | 14.8 | 0.00 | 0.00 | 0.00 | 49 | 1017.1 |
| 20260505020425 | 47 | 49 | 7.8 | 16.5 | 0.00 | 0.00 | 0.00 | 49 | 1016.9 |
| 20260505015926 | 47 | 55 | 7.8 | 16.5 | 0.00 | 0.00 | 0.00 | 48 | 1017.1 |
| 20260505015427 | 48 | 53 | 7.8 | 15.6 | 0.00 | 0.00 | 0.00 | 48 | 1016.9 |
| 20260505014927 | 48 | 35 | 8.7 | 15.6 | 0.00 | 0.00 | 0.00 | 47 | 1016.9 |
| 20260505014427 | 49 | 49 | 8.7 | 14.8 | 0.00 | 0.00 | 0.00 | 47 | 1016.7 |
| 20260505013926 | 49 | 51 | 8.7 | 16.5 | 0.00 | 0.00 | 0.00 | 48 | 1016.7 |
| 20260505013425 | 49 | 42 | 8.7 | 16.5 | 0.00 | 0.00 | 0.00 | 47 | 1016.5 |
| 20260505012925 | 50 | 56 | 7.8 | 15.6 | 0.00 | 0.00 | 0.00 | 47 | 1016.4 |
| 20260505012425 | 50 | 43 | 8.7 | 16.5 | 0.00 | 0.00 | 0.00 | 46 | 1016.2 |
| 20260505011927 | 51 | 40 | 8.7 | 16.5 | 0.00 | 0.00 | 0.00 | 46 | 1016.2 |
| 20260505011426 | 51 | 39 | 7.8 | 15.6 | 0.00 | 0.00 | 0.00 | 45 | 1016.1 |
| 20260505010933 | 52 | 47 | 7.8 | 16.5 | 0.00 | 0.00 | 0.00 | 45 | 1015.9 |
| 20260505010927 | 52 | 49 | 7.8 | 14.8 | 0.00 | 0.00 | 0.00 | 45 | 1016.1 |
| 20260505005926 | 53 | 55 | 7.8 | 16.5 | 0.00 | 0.00 | 0.00 | 44 | 1015.8 |
| 20260505005426 | 53 | 53 | 7.8 | 16.5 | 0.00 | 0.00 | 0.00 | 45 | 1015.9 |
| 20260505004927 | 53 | 41 | 7.8 | 16.5 | 0.00 | 0.00 | 0.00 | 44 | 1015.7 |
| 20260505004425 | 53 | 42 | 8.7 | 20.0 | 0.00 | 0.00 | 0.00 | 43 | 1015.5 |
| 20260505003931 | 55 | 53 | 10.4 | 21.7 | 0.00 | 0.00 | 0.00 | 42 | 1015.5 |
| 20260505003925 | 54 | 43 | 10.4 | 21.7 | 0.00 | 0.00 | 0.00 | 43 | 1015.5 |
| 20260505002927 | 55 | 74 | 7.8 | 15.6 | 0.00 | 0.00 | 0.00 | 43 | 1015.5 |
| 20260505002425 | 54 | 54 | 7.8 | 15.6 | 0.00 | 0.00 | 0.00 | 44 | 1015.5 |
| 20260505001927 | 54 | 44 | 8.7 | 15.6 | 0.00 | 0.00 | 0.00 | 43 | 1015.5 |
| 20260505001425 | 55 | 52 | 7.8 | 15.6 | 0.00 | 0.00 | 0.00 | 43 | 1015.7 |
| 20260505000925 | 55 | 59 | 7.8 | 14.8 | 0.00 | 0.00 | 0.00 | 42 | 1015.7 |
| 20260505000428 | 55 | 59 | 7.0 | 13.9 | 0.00 | 0.00 | 0.00 | 43 | 1015.4 |
| 20260504235924 | 55 | 51 | 6.1 | 15.6 | 0.00 | 0.00 | 0.00 | 42 | 1015.4 |
| 20260504235425 | 56 | 38 | 6.1 | 15.6 | 0.00 | 0.00 | 0.00 | 41 | 1015.4 |
| 20260504234930 | 57 | 44 | 6.1 | 13.9 | 0.00 | 0.00 | 0.00 | 40 | 1015.3 |
| 20260504234924 | 57 | 56 | 5.2 | 13.0 | 0.00 | 0.00 | 0.00 | 40 | 1015.4 |
| 20260504234559 | 58 | 36 | 6.1 | 13.9 | 0.00 | 0.00 | 0.00 | 40 | 1015.4 |
| 20260504234101 | 58 | 51 | 4.3 | 12.2 | 0.00 | 0.00 | 0.00 | 40 | 1015.4 |
| 20260504232923 | 57 | 30 | 4.3 | 13.0 | 0.00 | 0.00 | 0.00 | 40 | 1015.3 |
| 20260504232431 | 58 | 28 | 6.1 | 12.2 | 0.00 | 0.00 | 0.00 | 39 | 1015.1 |
| 20260504232425 | 57 | 51 | 5.2 | 13.0 | 0.00 | 0.00 | 0.00 | 40 | 1015.1 |
| 20260504231423 | 59 | 26 | 6.1 | 12.2 | 0.00 | 0.00 | 0.00 | 37 | 1015.0 |
| 20260504230925 | 61 | 49 | 6.1 | 12.2 | 0.00 | 0.00 | 0.00 | 37 | 1014.8 |
| 20260504230426 | 60 | 31 | 5.2 | 15.6 | 0.00 | 0.00 | 0.00 | 36 | 1014.7 |
| 20260504225921 | 61 | 48 | 5.2 | 15.6 | 0.00 | 0.00 | 0.00 | 36 | 1014.8 |
| 20260504225421 | 61 | 34 | 5.2 | 13.9 | 0.00 | 0.00 | 0.00 | 36 | 1015.0 |
| 20260504224921 | 61 | 46 | 4.3 | 12.2 | 0.00 | 0.00 | 0.00 | 37 | 1014.7 |
| 20260504224421 | 60 | 45 | 5.2 | 13.0 | 0.00 | 0.00 | 0.00 | 37 | 1014.7 |
| 20260504223923 | 60 | 28 | 5.2 | 13.0 | 0.00 | 0.00 | 0.00 | 36 | 1014.8 |
| 20260504223424 | 61 | 51 | 6.1 | 12.2 | 0.00 | 0.00 | 0.00 | 37 | 1014.7 |
| 20260504222921 | 61 | 47 | 7.0 | 15.6 | 0.00 | 0.00 | 0.00 | 36 | 1014.6 |
| 20260504222421 | 61 | 65 | 7.0 | 15.6 | 0.00 | 0.00 | 0.00 | 36 | 1014.6 |
| 20260504221922 | 61 | 54 | 6.1 | 11.3 | 0.00 | 0.00 | 0.00 | 36 | 1014.6 |
| 20260504221423 | 61 | 91 | 5.2 | 10.4 | 0.00 | 0.00 | 0.00 | 37 | 1014.6 |
| 20260504220928 | 61 | 55 | 6.1 | 10.4 | 0.00 | 0.00 | 0.00 | 37 | 1014.7 |
| 20260504220921 | 61 | 62 | 5.2 | 10.4 | 0.00 | 0.00 | 0.00 | 36 | 1014.7 |
| 20260504215922 | 61 | 45 | 6.1 | 10.4 | 0.00 | 0.00 | 0.00 | 37 | 1014.6 |
| 20260504215429 | 60 | 49 | 6.1 | 12.2 | 0.00 | 0.00 | 0.00 | 37 | 1014.7 |
| 20260504215423 | 61 | 63 | 6.1 | 12.2 | 0.00 | 0.00 | 0.00 | 37 | 1014.7 |
| 20260504215055 | 60 | 61 | 5.2 | 12.2 | 0.00 | 0.00 | 0.00 | 38 | 1014.7 |
| 20260504213920 | 61 | 36 | 5.2 | 13.9 | 0.00 | 0.00 | 0.00 | 36 | 1014.8 |
| 20260504213419 | 62 | 42 | 5.2 | 13.9 | 0.00 | 0.00 | 0.00 | 35 | 1015.0 |
| 20260504212919 | 62 | 57 | 4.3 | 10.4 | 0.00 | 0.00 | 0.00 | 37 | 1015.0 |
| 20260504212419 | 61 | 58 | 5.2 | 12.2 | 0.00 | 0.00 | 0.00 | 36 | 1015.1 |
| 20260504211919 | 60 | 61 | 5.2 | 12.2 | 0.00 | 0.00 | 0.00 | 40 | 1015.1 |
| 20260504211421 | 61 | 49 | 3.5 | 12.2 | 0.00 | 0.00 | 0.00 | 37 | 1015.2 |
| 20260504210919 | 61 | 45 | 4.3 | 10.4 | 0.00 | 0.00 | 0.00 | 36 | 1015.3 |
| 20260504210419 | 61 | 45 | 4.3 | 12.2 | 0.00 | 0.00 | 0.00 | 38 | 1015.3 |
| 20260504205920 | 60 | 20 | 3.5 | 12.2 | 0.00 | 0.00 | 0.00 | 39 | 1015.4 |
| 20260504205419 | 60 | 51 | 4.3 | 13.9 | 0.00 | 0.00 | 0.00 | 38 | 1015.3 |
| 20260504204919 | 60 | 61 | 6.1 | 13.9 | 0.00 | 0.00 | 0.00 | 37 | 1015.5 |
| 20260504204417 | 61 | 51 | 4.3 | 11.3 | 0.00 | 0.00 | 0.00 | 37 | 1015.5 |
| 20260504203917 | 61 | 55 | 3.5 | 8.7 | 0.00 | 0.00 | 0.00 | 38 | 1015.5 |
| 20260504203425 | 61 | 54 | 4.3 | 9.6 | 0.00 | 0.00 | 0.00 | 36 | 1015.7 |
| 20260504203419 | 61 | 54 | 3.5 | 8.7 | 0.00 | 0.00 | 0.00 | 36 | 1015.7 |
| 20260504203054 | 61 | 36 | 5.2 | 11.3 | 0.00 | 0.00 | 0.00 | 38 | 1015.5 |
| 20260504201919 | 61 | 41 | 5.2 | 11.3 | 0.00 | 0.00 | 0.00 | 38 | 1015.7 |
| 20260504201417 | 61 | 44 | 4.3 | 13.0 | 0.00 | 0.00 | 0.00 | 37 | 1015.8 |
| 20260504200918 | 61 | 44 | 4.3 | 13.0 | 0.00 | 0.00 | 0.00 | 37 | 1015.7 |
| 20260504200414 | 60 | 39 | 4.3 | 9.6 | 0.00 | 0.00 | 0.00 | 39 | 1015.8 |
| 20260504195915 | 60 | 25 | 5.2 | 11.3 | 0.00 | 0.00 | 0.00 | 36 | 1015.8 |
| 20260504195415 | 60 | 51 | 4.3 | 11.3 | 0.00 | 0.00 | 0.00 | 39 | 1015.8 |
| 20260504194917 | 60 | 81 | 5.2 | 11.3 | 0.00 | 0.00 | 0.00 | 40 | 1015.8 |
| 20260504194416 | 59 | 84 | 4.3 | 11.3 | 0.00 | 0.00 | 0.00 | 40 | 1015.8 |
| 20260504193916 | 59 | 55 | 4.3 | 13.0 | 0.00 | 0.00 | 0.00 | 39 | 1016.1 |
| 20260504193416 | 58 | 55 | 5.2 | 13.0 | 0.00 | 0.00 | 0.00 | 42 | 1016.4 |
| 20260504192921 | 58 | 51 | 6.1 | 14.8 | 0.00 | 0.00 | 0.00 | 38 | 1016.2 |
| 20260504192915 | 58 | 55 | 5.2 | 11.3 | 0.00 | 0.00 | 0.00 | 40 | 1016.4 |
| 20260504191920 | 59 | 49 | 7.0 | 14.8 | 0.00 | 0.00 | 0.00 | 37 | 1016.4 |
| 20260504191914 | 60 | 75 | 5.2 | 11.3 | 0.00 | 0.00 | 0.00 | 40 | 1016.5 |
| 20260504190915 | 60 | 59 | 5.2 | 13.0 | 0.00 | 0.00 | 0.00 | 38 | 1016.4 |
| 20260504190412 | 60 | 44 | 4.3 | 13.0 | 0.00 | 0.00 | 0.00 | 39 | 1016.5 |
| 20260504185914 | 60 | 55 | 5.2 | 12.2 | 0.00 | 0.00 | 0.00 | 38 | 1016.4 |
| 20260504185415 | 60 | 82 | 5.2 | 15.6 | 0.00 | 0.00 | 0.00 | 39 | 1016.5 |
| 20260504184913 | 60 | 46 | 5.2 | 15.6 | 0.00 | 0.00 | 0.00 | 37 | 1016.6 |
| 20260504184413 | 60 | 51 | 4.3 | 14.8 | 0.00 | 0.00 | 0.00 | 39 | 1016.6 |
| 20260504183915 | 60 | 42 | 3.5 | 12.2 | 0.00 | 0.00 | 0.00 | 37 | 1016.6 |
| 20260504183419 | 60 | 64 | 5.2 | 13.0 | 0.00 | 0.00 | 0.00 | 39 | 1016.9 |
| 20260504183413 | 60 | 64 | 4.3 | 13.0 | 0.00 | 0.00 | 0.00 | 38 | 1016.8 |
| 20260504182413 | 60 | 98 | 5.2 | 9.6 | 0.00 | 0.00 | 0.00 | 38 | 1016.8 |
| 20260504181913 | 60 | 107 | 6.1 | 10.4 | 0.00 | 0.00 | 0.00 | 38 | 1016.9 |
| 20260504181415 | 60 | 111 | 5.2 | 10.4 | 0.00 | 0.00 | 0.00 | 38 | 1016.9 |
| 20260504180913 | 59 | 108 | 5.2 | 12.2 | 0.00 | 0.00 | 0.00 | 39 | 1017.1 |
| 20260504180415 | 59 | 100 | 6.1 | 13.9 | 0.00 | 0.00 | 0.00 | 39 | 1017.1 |
| 20260504175918 | 58 | 87 | 5.2 | 9.6 | 0.00 | 0.00 | 0.00 | 42 | 1017.3 |
| 20260504175912 | 59 | 97 | 5.2 | 13.9 | 0.00 | 0.00 | 0.00 | 40 | 1017.2 |
| 20260504174911 | 57 | 82 | 5.2 | 10.4 | 0.00 | 0.00 | 0.00 | 43 | 1017.3 |
| 20260504174418 | 57 | 89 | 5.2 | 11.3 | 0.00 | 0.00 | 0.00 | 41 | 1017.4 |
| 20260504174412 | 57 | 81 | 4.3 | 10.4 | 0.00 | 0.00 | 0.00 | 40 | 1017.4 |
| 20260504173410 | 56 | 86 | 6.1 | 11.3 | 0.00 | 0.00 | 0.00 | 44 | 1017.4 |
| 20260504172912 | 56 | 96 | 4.3 | 9.6 | 0.00 | 0.00 | 0.00 | 43 | 1017.4 |
| 20260504172411 | 56 | 83 | 4.3 | 10.4 | 0.00 | 0.00 | 0.00 | 43 | 1017.4 |
| 20260504171911 | 56 | 84 | 4.3 | 10.4 | 0.00 | 0.00 | 0.00 | 43 | 1017.4 |
| 20260504171410 | 56 | 69 | 5.2 | 11.3 | 0.00 | 0.00 | 0.00 | 43 | 1017.5 |
| 20260504170910 | 56 | 39 | 6.1 | 11.3 | 0.00 | 0.00 | 0.00 | 42 | 1017.5 |
| 20260504170409 | 56 | 67 | 5.2 | 10.4 | 0.00 | 0.00 | 0.00 | 43 | 1017.5 |
| 20260504160406 | 52 | 37 | 5.2 | 11.3 | 0.00 | 0.00 | 0.00 | 47 | 1018.0 |
| 20260504150908 | 51 | 52 | 7.8 | 17.4 | 0.00 | 0.00 | 0.00 | 49 | 1017.8 |
| 20260504150406 | 51 | 53 | 7.8 | 16.5 | 0.00 | 0.00 | 0.00 | 50 | 1017.9 |
| 20260504140909 | 50 | 39 | 7.0 | 14.8 | 0.00 | 0.00 | 0.00 | 52 | 1016.6 |
| 20260504140406 | 51 | 30 | 7.8 | 18.2 | 0.00 | 0.00 | 0.00 | 51 | 1016.2 |